GW7237 Weather Reports


time (UTC)temp
C
wind
direction
speed
KPH
gust
KPH
rain 1hr
cm
rain 24hr
cm
rain mn
cm
humidity
%
barometer
mb
20260509041954 11 169 0.0 0.0 0.00 0.00 0.00 60 1015.1
20260509041454 11 169 0.0 0.0 0.00 0.00 0.00 60 1015.0
20260509040451 11 168 0.0 0.0 0.00 0.00 0.00 60 1014.9
20260509035951 11 168 0.0 1.6 0.00 0.00 0.00 59 1015.0
20260509035450 11 168 0.0 1.6 0.00 0.00 0.00 59 1015.0
20260509034952 11 136 1.6 6.4 0.00 0.00 0.00 59 1014.9
20260509033948 11 136 1.6 4.8 0.00 0.00 0.00 61 1014.5
20260509033450 10 142 1.6 3.2 0.00 0.00 0.00 62 1014.6
20260509032948 10 129 0.0 3.2 0.00 0.00 0.00 63 1014.6
20260509032450 10 127 0.0 1.6 0.00 0.00 0.00 62 1014.6
20260509031944 10 127 0.0 0.0 0.00 0.00 0.00 62 1014.6
20260509031444 11 127 0.0 0.0 0.00 0.00 0.00 61 1014.6
20260509025946 12 127 0.0 1.6 0.00 0.00 0.00 57 1014.5
20260509025445 12 127 0.0 1.6 0.00 0.00 0.00 56 1014.4
20260509024944 12 127 0.0 1.6 0.00 0.00 0.00 56 1014.3
20260509024444 12 127 0.0 3.2 0.00 0.00 0.00 56 1014.2
20260509023945 12 126 0.0 3.2 0.00 0.00 0.00 56 1014.0
20260509023445 12 126 0.0 3.2 0.00 0.00 0.00 56 1013.9
20260509022947 12 126 0.0 3.2 0.00 0.00 0.00 56 1013.9
20260509021947 13 112 0.0 3.2 0.00 0.00 0.00 54 1014.0
20260509020944 13 93 0.0 1.6 0.00 0.00 0.00 54 1013.9
20260509020445 13 93 0.0 1.6 0.00 0.00 0.00 53 1013.9
20260509015944 13 93 0.0 1.6 0.00 0.00 0.00 52 1013.8
20260509014945 14 93 0.0 1.6 0.00 0.00 0.00 51 1013.6
20260509014444 14 93 0.0 1.6 0.00 0.00 0.00 51 1013.7
20260509013944 15 93 0.0 1.6 0.00 0.00 0.00 50 1013.6
20260509013444 15 93 0.0 1.6 0.00 0.00 0.00 49 1013.6
20260509012944 15 94 0.0 3.2 0.00 0.00 0.00 48 1013.6
20260509012442 15 96 0.0 3.2 0.00 0.00 0.00 47 1013.6
20260509011942 15 84 0.0 3.2 0.00 0.00 0.00 48 1013.6
20260509011441 15 83 0.0 4.8 0.00 0.00 0.00 46 1013.6
20260509010943 15 82 0.0 4.8 0.00 0.00 0.00 46 1013.4
20260509010442 16 113 0.0 6.4 0.00 0.00 0.00 46 1013.4
20260509005936 16 115 0.0 6.4 0.00 0.00 0.00 44 1013.4
20260509005431 16 89 0.0 4.8 0.00 0.00 0.00 45 1013.4
20260509004924 16 90 0.0 4.8 0.00 0.00 0.00 46 1013.4
20260509004418 16 51 0.0 3.2 0.00 0.00 0.00 45 1013.4
20260509003912 16 34 0.0 3.2 0.00 0.00 0.00 45 1013.6
20260509003406 16 24 0.0 1.6 0.00 0.00 0.00 44 1013.8
20260509002900 16 27 0.0 1.6 0.00 0.00 0.00 42 1013.6
20260509002401 17 28 0.0 3.2 0.00 0.00 0.00 41 1013.4
20260509001857 17 49 0.0 4.8 0.00 0.00 0.00 41 1013.4
20260509001400 17 98 0.0 4.8 0.00 0.00 0.00 41 1013.4
20260509000357 18 12 0.0 4.8 0.00 0.00 0.00 40 1013.3
20260508234858 18 298 1.6 9.7 0.00 0.00 0.00 40 1013.4
20260508234356 18 49 0.0 0.0 0.00 0.00 0.00 40 1013.3
20260508233853 18 70 0.0 4.8 0.00 0.00 0.00 38 1013.3
20260508233354 18 74 0.0 8.0 0.00 0.00 0.00 39 1013.4
20260508232853 18 63 0.0 8.0 0.00 0.00 0.00 40 1013.3
20260508232353 18 32 0.0 0.0 0.00 0.00 0.00 39 1013.3
20260508231851 18 327 0.0 3.2 0.00 0.00 0.00 39 1013.3
20260508231353 18 274 0.0 4.8 0.00 0.00 0.00 38 1013.2
20260508230351 18 62 1.6 14.5 0.00 0.00 0.00 40 1013.4
20260508225344 18 69 1.6 11.3 0.00 0.00 0.00 41 1013.4
20260508224834 18 101 1.6 11.3 0.00 0.00 0.00 39 1013.6
20260508223825 18 99 1.6 6.4 0.00 0.00 0.00 41 1013.4
20260508223316 18 126 0.0 6.4 0.00 0.00 0.00 39 1013.4
20260508222306 18 64 0.0 9.7 0.00 0.00 0.00 39 1013.4
20260508221758 18 290 1.6 8.0 0.00 0.00 0.00 41 1013.4
20260508221252 18 16 1.6 8.0 0.00 0.00 0.00 41 1013.6
20260508220746 18 65 1.6 8.0 0.00 0.00 0.00 41 1013.6
20260508220240 18 335 0.0 6.4 0.00 0.00 0.00 41 1013.6
20260508215734 18 279 1.6 6.4 0.00 0.00 0.00 40 1013.6
20260508215228 18 34 0.0 8.0 0.00 0.00 0.00 42 1013.6
20260508214722 18 49 0.0 3.2 0.00 0.00 0.00 42 1013.7
20260508212658 18 99 1.6 11.3 0.00 0.00 0.00 41 1013.9
20260508212152 18 154 1.6 9.7 0.00 0.00 0.00 39 1013.9
20260508211646 18 167 1.6 4.8 0.00 0.00 0.00 41 1013.9
20260508211140 18 33 1.6 9.7 0.00 0.00 0.00 39 1013.9
20260508210634 18 46 1.6 9.7 0.00 0.00 0.00 42 1014.0
20260508205116 18 287 1.6 11.3 0.00 0.00 0.00 43 1014.2
20260508204610 18 29 1.6 11.3 0.00 0.00 0.00 45 1014.2
20260508204105 18 36 1.6 8.0 0.00 0.00 0.00 43 1014.2
20260508203558 18 265 1.6 8.0 0.00 0.00 0.00 44 1014.2
20260508203051 18 0 1.6 6.4 0.00 0.00 0.00 43 1014.3
20260508202041 17 284 1.6 11.3 0.00 0.00 0.00 44 1014.3
20260508201535 17 61 1.6 11.3 0.00 0.00 0.00 44 1014.3
20260508201029 17 296 0.0 8.0 0.00 0.00 0.00 44 1014.4
20260508200015 17 48 1.6 9.7 0.00 0.00 0.00 45 1014.4
20260508194506 17 21 0.0 6.4 0.00 0.00 0.00 44 1014.6
20260508194007 17 20 0.0 1.6 0.00 0.00 0.00 42 1014.6
20260508193511 17 309 0.0 4.8 0.00 0.00 0.00 44 1014.9
20260508193006 17 28 1.6 8.0 0.00 0.00 0.00 45 1014.8
20260508192504 17 44 1.6 8.0 0.00 0.00 0.00 41 1014.9
20260508192003 17 57 0.0 4.8 0.00 0.00 0.00 43 1014.9
20260508191505 17 78 1.6 14.5 0.00 0.00 0.00 41 1014.9
20260508191003 17 55 1.6 14.5 0.00 0.00 0.00 40 1014.9
20260508190004 17 59 0.0 4.8 0.00 0.00 0.00 44 1014.9
20260508185504 17 76 0.0 1.6 0.00 0.00 0.00 44 1014.9
20260508185001 17 291 0.0 1.6 0.00 0.00 0.00 44 1015.0
20260508184501 17 65 0.0 1.6 0.00 0.00 0.00 47 1015.0
20260508184001 16 73 0.0 4.8 0.00 0.00 0.00 48 1015.1
20260508182955 16 101 0.0 3.2 0.00 0.00 0.00 43 1015.1
20260508182457 16 40 0.0 3.2 0.00 0.00 0.00 43 1015.3
20260508181953 16 26 0.0 3.2 0.00 0.00 0.00 44 1015.1
20260508181448 16 44 0.0 1.6 0.00 0.00 0.00 42 1015.4
20260508180942 16 298 0.0 0.0 0.00 0.00 0.00 43 1015.4
20260508175930 16 355 0.0 1.6 0.00 0.00 0.00 47 1015.4
20260508175424 15 55 0.0 0.0 0.00 0.00 0.00 46 1015.4
20260508174918 15 90 0.0 1.6 0.00 0.00 0.00 48 1015.5
20260508173906 15 103 0.0 0.0 0.00 0.00 0.00 51 1015.5
20260508173400 15 141 0.0 0.0 0.00 0.00 0.00 49 1015.6
20260508172854 15 141 0.0 0.0 0.00 0.00 0.00 49 1015.6
20260508171842 15 39 0.0 0.0 0.00 0.00 0.00 49 1015.6
20260508171336 15 61 0.0 0.0 0.00 0.00 0.00 50 1015.6
20260508170831 14 138 0.0 0.0 0.00 0.00 0.00 55 1015.6
20260508170325 14 144 0.0 0.0 0.00 0.00 0.00 51 1015.7
20260508165312 13 97 0.0 0.0 0.00 0.00 0.00 53 1015.9
20260508164806 13 98 0.0 0.0 0.00 0.00 0.00 53 1015.9
20260508164301 13 95 0.0 0.0 0.00 0.00 0.00 55 1016.0
20260508163800 13 93 0.0 0.0 0.00 0.00 0.00 56 1016.0
20260508163257 13 111 0.0 0.0 0.00 0.00 0.00 56 1016.0
20260508162756 12 133 0.0 0.0 0.00 0.00 0.00 58 1016.1
20260508162257 12 118 0.0 0.0 0.00 0.00 0.00 60 1016.1
20260508161758 12 48 0.0 0.0 0.00 0.00 0.00 62 1016.1
20260508161257 11 311 0.0 0.0 0.00 0.00 0.00 64 1016.1
20260508160755 11 246 0.0 0.0 0.00 0.00 0.00 63 1016.1
20260508160253 11 236 0.0 0.0 0.00 0.00 0.00 63 1016.1
20260508154756 11 229 0.0 0.0 0.00 0.00 0.00 67 1016.1
20260508154249 10 213 0.0 0.0 0.00 0.00 0.00 69 1016.2
20260508153748 10 188 0.0 4.8 0.00 0.00 0.00 70 1016.2
20260508153244 10 225 0.0 6.4 0.00 0.00 0.00 71 1016.3
20260508152746 10 184 0.0 6.4 0.00 0.00 0.00 73 1016.3
20260508152245 10 186 0.0 1.6 0.00 0.00 0.00 75 1016.3
20260508151744 9 255 0.0 6.4 0.00 0.00 0.00 75 1016.3
20260508150742 9 275 0.0 0.0 0.00 0.00 0.00 77 1016.5
20260508150234 9 185 0.0 1.6 0.00 0.00 0.00 77 1016.5
20260508145735 9 154 0.0 1.6 0.00 0.00 0.00 78 1016.5
20260508145234 8 184 0.0 0.0 0.00 0.00 0.00 81 1016.5
20260508144736 8 178 0.0 0.0 0.00 0.00 0.00 80 1016.6
20260508144232 8 210 0.0 0.0 0.00 0.00 0.00 82 1016.7
20260508143733 8 189 0.0 6.4 0.00 0.00 0.00 81 1016.8
20260508142734 8 207 0.0 6.4 0.00 0.00 0.00 82 1016.8
20260508142233 8 227 0.0 3.2 0.00 0.00 0.00 82 1016.8
20260508141734 8 196 0.0 0.0 0.00 0.00 0.00 81 1016.8
20260508141231 7 264 0.0 0.0 0.00 0.00 0.00 82 1016.8
20260508140729 7 273 0.0 0.0 0.00 0.00 0.00 83 1016.8
20260508135730 7 288 0.0 0.0 0.00 0.00 0.00 86 1017.0
20260508135229 7 288 0.0 0.0 0.00 0.00 0.00 86 1017.0
20260508134729 6 290 0.0 0.0 0.00 0.00 0.00 88 1016.8
20260508134230 6 292 0.0 0.0 0.00 0.00 0.00 88 1017.0
20260508133730 6 293 0.0 0.0 0.00 0.00 0.00 88 1016.8
20260508133230 6 293 0.0 1.6 0.00 0.00 0.00 89 1016.8
20260508132729 6 307 0.0 1.6 0.00 0.00 0.00 89 1016.7
20260508131230 5 307 0.0 1.6 0.00 0.00 0.00 90 1016.7
20260508130729 5 309 0.0 1.6 0.00 0.00 0.00 90 1016.7
20260508130228 5 313 0.0 1.6 0.00 0.00 0.00 90 1016.6
20260508125732 5 314 0.0 0.0 0.00 0.00 0.00 90 1016.5
20260508125233 5 314 0.0 0.0 0.00 0.00 0.00 90 1016.3
20260508123718 5 335 0.0 1.6 0.00 0.00 0.00 90 1015.7
20260508123212 4 335 0.0 1.6 0.00 0.00 0.00 89 1015.6
20260508122200 4 335 0.0 0.0 0.00 0.00 0.00 89 1015.6
20260508121654 3 335 0.0 0.0 0.00 0.00 0.00 89 1015.5
20260508121148 3 335 0.0 0.0 0.00 0.00 0.00 89 1015.4
20260508120642 3 335 0.0 0.0 0.00 0.00 0.00 88 1015.1
20260508120136 3 335 0.0 0.0 0.00 0.00 0.00 87 1015.1
20260508115630 3 335 0.0 0.0 0.00 0.00 0.00 84 1014.9
20260508114619 4 335 0.0 0.0 0.00 0.00 0.00 81 1014.8
20260508114113 5 335 0.0 0.0 0.00 0.00 0.00 82 1014.6
20260508113100 5 335 0.0 3.2 0.00 0.00 0.00 82 1014.6
20260508112047 5 273 0.0 6.4 0.00 0.00 0.00 83 1014.5
20260508111545 5 334 0.0 3.2 0.00 0.00 0.00 82 1014.8
20260508111036 5 224 0.0 3.2 0.00 0.00 0.00 82 1014.2
20260508110535 5 195 0.0 3.2 0.00 0.00 0.00 82 1014.0
20260508110036 5 260 0.0 1.6 0.00 0.00 0.00 82 1014.3
20260508105536 5 261 0.0 0.0 0.00 0.00 0.00 83 1014.0
20260508105035 5 262 0.0 0.0 0.00 0.00 0.00 83 1014.2
20260508104532 5 262 0.0 0.0 0.00 0.00 0.00 84 1014.3
20260508104033 5 273 0.0 0.0 0.00 0.00 0.00 85 1014.3
20260508103534 5 274 0.0 0.0 0.00 0.00 0.00 87 1014.2
20260508103032 4 283 0.0 0.0 0.00 0.00 0.00 88 1014.2
20260508102530 3 283 0.0 1.6 0.00 0.00 0.00 87 1014.3
20260508102031 3 283 0.0 1.6 0.00 0.00 0.00 87 1014.2
20260508101530 3 284 0.0 1.6 0.00 0.00 0.00 87 1014.0
20260508101031 3 284 0.0 0.0 0.00 0.00 0.00 87 1014.2
20260508100030 3 284 0.0 0.0 0.00 0.00 0.00 87 1014.0
20260508095530 3 284 0.0 0.0 0.00 0.00 0.00 86 1013.9
20260508095022 3 284 0.0 0.0 0.00 0.00 0.00 87 1013.9
20260508094516 3 284 0.0 0.0 0.00 0.00 0.00 86 1014.0
20260508094009 3 284 0.0 0.0 0.00 0.00 0.00 86 1014.0
20260508093503 3 284 0.0 0.0 0.00 0.00 0.00 86 1014.0
20260508092957 3 284 0.0 0.0 0.00 0.00 0.00 85 1014.0
20260508092451 3 284 0.0 0.0 0.00 0.00 0.00 85 1014.0
20260508091946 3 284 0.0 0.0 0.00 0.00 0.00 84 1014.0
20260508091439 3 284 0.0 0.0 0.00 0.00 0.00 83 1014.2
20260508090934 4 284 0.0 0.0 0.00 0.00 0.00 82 1014.2
20260508085921 4 284 0.0 1.6 0.00 0.00 0.00 83 1014.3
20260508085415 4 278 0.0 0.0 0.00 0.00 0.00 81 1014.4
20260508084910 5 278 0.0 0.0 0.00 0.00 0.00 79 1014.3
20260508084403 5 278 0.0 1.6 0.00 0.00 0.00 78 1014.3
20260508083857 5 278 0.0 1.6 0.00 0.00 0.00 78 1014.4
20260508082846 5 278 0.0 1.6 0.00 0.00 0.00 80 1014.5
20260508082339 5 275 0.0 1.6 0.00 0.00 0.00 80 1014.3
20260508081833 5 275 0.0 1.6 0.00 0.00 0.00 79 1014.4
20260508080821 6 277 0.0 1.6 0.00 0.00 0.00 76 1014.5
20260508080315 6 277 0.0 1.6 0.00 0.00 0.00 77 1014.5
20260508075808 6 277 0.0 1.6 0.00 0.00 0.00 78 1014.5
20260508075308 6 283 0.0 1.6 0.00 0.00 0.00 76 1014.6
20260508074252 6 283 0.0 1.6 0.00 0.00 0.00 76 1015.0
20260508073745 6 286 0.0 1.6 0.00 0.00 0.00 76 1015.1
20260508073239 6 291 0.0 1.6 0.00 0.00 0.00 77 1015.0
20260508072733 6 291 0.0 0.0 0.00 0.00 0.00 78 1015.1
20260508071722 6 291 0.0 0.0 0.00 0.00 0.00 77 1015.0
20260508071215 6 291 0.0 0.0 0.00 0.00 0.00 75 1014.8
20260508070202 7 291 0.0 1.6 0.00 0.00 0.00 73 1015.0
20260508065151 8 291 0.0 1.6 0.00 0.00 0.00 70 1015.1
20260508064645 8 291 0.0 1.6 0.00 0.00 0.00 69 1015.1
20260508064139 8 291 0.0 1.6 0.00 0.00 0.00 69 1015.1
20260508062621 8 305 0.0 1.6 0.00 0.00 0.00 68 1014.9
20260508062115 8 305 0.0 1.6 0.00 0.00 0.00 68 1014.8
20260508061612 8 305 0.0 1.6 0.00 0.00 0.00 67 1014.9
20260508061111 8 305 0.0 1.6 0.00 0.00 0.00 66 1014.8
20260508060113 9 305 0.0 1.6 0.00 0.00 0.00 65 1014.8
20260508055612 9 304 0.0 1.6 0.00 0.00 0.00 64 1014.8
20260508055113 9 301 0.0 1.6 0.00 0.00 0.00 63 1014.9
20260508054611 9 299 0.0 1.6 0.00 0.00 0.00 62 1014.8
20260508054112 10 299 0.0 1.6 0.00 0.00 0.00 61 1014.6
20260508053610 10 300 0.0 1.6 0.00 0.00 0.00 61 1014.6
20260508053112 10 283 0.0 1.6 0.00 0.00 0.00 62 1014.5
20260508052110 10 284 0.0 4.8 0.00 0.00 0.00 61 1014.6
20260508051610 10 297 0.0 3.2 0.00 0.00 0.00 60 1014.8
20260508051111 10 298 0.0 3.2 0.00 0.00 0.00 62 1014.6
20260508050610 9 301 0.0 1.6 0.00 0.00 0.00 61 1014.5
20260508045605 9 309 0.0 0.0 0.00 0.00 0.00 62 1014.3
20260508045105 9 309 0.0 1.6 0.00 0.00 0.00 61 1014.2
20260508044600 9 309 0.0 1.6 0.00 0.00 0.00 62 1014.2
20260508044053 9 309 0.0 1.6 0.00 0.00 0.00 62 1014.0
20260508043547 9 309 0.0 1.6 0.00 0.00 0.00 62 1014.0
20260508043041 10 310 0.0 1.6 0.00 0.00 0.00 61 1014.0